TIANMU-1 22

Last updated on Sat Aug 15 2026 00:02:41 GMT+0000 (Coordinated Universal Time)

1 58663U 23208D 26226.61747949 .00004269 00000+0 14164-3 0 9997 2 58663 97.4548 343.1477 0005081 122.9763 237.1967 15.31789326146270
UTC large
Height (km)
Speed (km/s)
/
Latitude / Longitude
Inclination (degrees)
Orbital Period (minutes)
Azimuth
Elevation
Range (km)
Doppler Factor

Next 0 passes for location: London (51.5072 / 0.1276)

No passes found over London.
TIANMU-1 22